[[{"header":{"parameterUnit":"m.s-1","parameterCategory":1,"la1":30.2991,"la2":30.254,"lo1":-89.0895,"lo2":-89.0444,"dy":0.0017,"dx":0.0017,"nx":28,"ny":28,"refTime":"2023-08-28T09:00:00:Z","depth":0,"parameterNumber":2,"parameterNumberName":"U-component_of_WINDS"},"data":[0,0,0,0,0,0,0,0,0,0,0,0,0,0,0,0,0,0,0,0,0,0,0,0,0,0,0,0,0,0,0,0,0,0,0,0,0,0,0,0,0,0,0,0,0,0,0,0,0,0,0,0,0,0,0,0,0,0,-2.5871,-2.5871,0,-2.5864,-2.5864,-2.5864,-2.5784,-2.5782,-2.578,-2.5778,-2.5774,-2.5776,-2.5777,0,0,0,0,0,0,0,0,0,0,0,0,0,-2.5817,-2.5819,-2.5871,-2.5871,-2.5871,-2.5864,-2.5864,-2.5864,-2.5784,-2.5782,-2.5779,-2.5777,-2.5773,-2.5776,-2.5778,0,0,0,0,0,0,0,0,0,0,0,0,0,-2.5829,-2.5819,-2.5871,-2.583,-2.5826,-2.5864,-2.5864,-2.5864,-2.5785,-2.5782,-2.5779,-2.5776,-2.5773,-2.5775,-2.5778,-2.5856,0,0,-2.5786,-2.5787,0,0,0,0,0,0,0,0,-2.5828,-2.5831,-2.5836,-2.5833,-2.5829,-2.5822,-2.5844,-2.5861,-2.5785,-2.5801,-2.5778,-2.5774,-2.5793,-2.5793,-2.5799,-2.5855,-2.5855,-2.5786,-2.5788,-2.5789,-2.579,0,0,0,0,0,0,0,-2.5827,-2.5831,-2.5868,-2.5836,-2.5832,-2.5813,-2.5811,-2.5847,-2.5814,-2.5799,-2.5793,-2.5793,-2.579,-2.5797,-2.5798,-2.5855,-2.5786,-2.5789,-2.579,-2.5791,-2.5977,-2.5981,0,0,0,0,0,0,-2.5832,-2.5831,-2.5868,-2.5868,-2.5821,-2.5816,-2.5814,-2.5827,-2.5813,-2.5808,-2.5796,-2.579,-2.5793,-2.5795,-2.5798,-2.5889,-2.5789,-2.5792,-2.5793,-2.5974,-2.5978,-2.5982,0,0,0,0,0,0,-2.5831,-2.5836,-2.5869,-2.5848,-2.585,-2.5821,-2.5835,-2.5829,-2.5835,-2.5811,-2.5805,-2.5809,-2.5791,-2.5794,-2.5842,-2.5888,-2.5793,-2.5795,-2.597,-2.5975,-2.598,-2.6072,0,0,0,0,0,0,-2.583,-2.5836,-2.5865,-2.5849,-2.5852,-2.5912,-2.5838,-2.5831,-2.584,-2.5831,-2.5821,-2.5817,-2.5789,-2.5839,-2.5845,-2.589,-2.5797,-2.5966,-2.5973,-2.5978,-2.6065,-2.608,-2.6093,0,0,0,0,0,-2.5828,-2.5891,-2.5866,-2.5871,-2.5886,-2.5915,-2.5917,-2.5883,-2.5843,-2.5873,-2.5857,-2.5817,-2.5882,-2.5844,-2.5851,-2.5897,-2.5963,-2.5971,-2.5978,-2.6059,-2.6077,-2.6092,0,0,0,0,0,0,-2.5914,-2.5888,-2.5861,-2.592,-2.592,-2.5901,-2.5937,-2.5903,-2.5915,-2.5907,-2.5865,-2.5864,-2.5919,-2.5912,-2.5871,-2.5973,-2.5915,-2.5925,-2.5975,-2.5992,-2.6005,-2.6006,-2.58,0,0,0,0,0,-2.5939,-2.5964,-2.594,-2.5995,-2.5997,-2.5967,-2.5978,-2.5952,-2.5951,-2.5951,-2.5939,-2.5941,-2.5961,-2.5976,-2.5994,-2.6064,-2.6061,-2.6099,-2.6113,-2.6124,-2.6133,-2.6172,-2.6189,-2.6006,-2.6006,-2.6006,0,0,-2.5992,-2.5982,-2.6,-2.6012,-2.6009,-2.6037,-2.5968,-2.5999,-2.602,-2.5956,-2.6001,-2.5993,-2.5992,-2.6052,-2.6077,-2.6048,-2.6183,-2.6134,-2.6143,-2.6146,-2.6181,-2.6198,-2.6214,-2.6011,-2.601,-2.601,0,0,-2.6104,-2.6098,-2.6143,-2.6142,-2.6138,-2.6118,-2.613,-2.6116,-2.6108,-2.6152,-2.6106,-2.613,-2.6166,-2.6168,-2.6174,-2.6288,-2.6252,-2.6294,-2.6367,-2.6405,-2.6419,-2.6432,-2.6474,-2.649,-2.6303,-2.6303,-2.6303,0,-2.6171,-2.621,-2.6171,-2.6206,-2.6214,-2.6157,-2.6204,-2.6205,-2.6208,-2.6215,-2.6182,-2.6227,-2.6222,-2.6283,-2.6311,-2.6317,-2.633,-2.6296,-2.642,-2.6432,-2.6443,-2.6484,-2.65,-2.6309,-2.6308,-2.6307,-2.6307,0,-2.6293,-2.6321,-2.6359,-2.6363,-2.6374,-2.6415,-2.6384,-2.6401,-2.6374,-2.6359,-2.6406,-2.6398,-2.6414,-2.6426,-2.64,-2.6484,-2.6466,-2.6427,-2.6369,-2.6467,-2.6504,-2.6519,-2.6316,-2.6314,-2.6313,-2.6311,0,0,-2.6459,-2.6441,-2.6456,-2.6458,-2.645,-2.6472,-2.6511,-2.6526,-2.6542,-2.6546,-2.6579,-2.6612,-2.6576,-2.6583,-2.6557,-2.659,-2.6683,-2.6547,-2.6547,-2.6575,-2.6777,-2.6808,-2.6826,-2.6659,-2.6662,-2.6664,-2.6778,0,-2.6568,-2.6633,-2.66,-2.667,-2.6696,-2.6643,-2.6677,-2.6677,-2.6664,-2.6685,-2.667,-2.6695,-2.6645,-2.6649,-2.6679,-2.6666,-2.6724,-2.6657,-2.6691,-2.6693,-2.6695,-2.6845,-2.6877,-2.6985,-2.6792,-2.6794,-2.6796,0,-2.6703,-2.6713,-2.6786,-2.6775,-2.6785,-2.6816,-2.6828,-2.6848,-2.6848,-2.6836,-2.6844,-2.6811,-2.685,-2.6792,-2.6846,-2.6802,-2.6814,-2.681,-2.6813,-2.6816,-2.6752,-2.6854,-2.7018,-2.7035,-2.6818,-2.6816,-2.6815,0,-2.6819,-2.6851,-2.6898,-2.6901,-2.6889,-2.6913,-2.6909,-2.6905,-2.6917,-2.6928,-2.6936,-2.6951,-2.696,-2.6974,-2.6947,-2.6906,-2.7006,-2.6945,-2.6999,-2.7,-2.7024,-2.7023,-2.7194,-2.7029,-2.7029,-2.7028,-2.7028,0,-2.6945,-2.6992,-2.695,-2.698,-2.7032,-2.6994,-2.7046,-2.7037,-2.7035,-2.7063,-2.7017,-2.7045,-2.7006,-2.7031,-2.7009,-2.7059,-2.7063,-2.7056,-2.705,-2.7061,-2.7062,-2.707,-2.7062,-2.7033,-2.7032,-2.7031,-2.703,0,-2.7084,-2.7057,-2.7106,-2.7091,-2.7088,-2.7127,-2.7115,-2.7142,-2.7126,-2.7162,-2.7169,-2.7143,-2.717,-2.7143,-2.7168,-2.7154,-2.7221,-2.7204,-2.7222,-2.7217,-2.7274,-2.727,-2.7457,-2.7481,-2.7299,-2.7301,-2.7302,0,-2.7167,-2.7202,-2.719,-2.7206,-2.7205,-2.7229,-2.7241,-2.7206,-2.722,-2.7223,-2.7251,-2.7273,-2.729,-2.7335,-2.732,-2.7339,-2.7322,-2.7387,-2.7325,-2.7336,-2.7326,-2.7325,-2.7329,-2.74,-2.7402,-2.7404,-2.7405,0,-2.7318,-2.7303,-2.7321,-2.7336,-2.7351,-2.7361,-2.7367,-2.7383,-2.7346,-2.7365,-2.7391,-2.7404,-2.7429,-2.7453,-2.7468,-2.7465,-2.7431,-2.7425,-2.7439,-2.7451,-2.7461,-2.7458,-2.7258,-2.7421,-2.7419,-2.7418,-2.7417,-2.7417,-2.7432,-2.7462,-2.7459,-2.7481,-2.7482,-2.7489,-2.7515,-2.7502,-2.7523,-2.754,-2.7518,-2.7551,-2.7551,-2.7568,-2.7569,-2.7596,-2.7569,-2.7589,-2.7594,-2.76,-2.7609,-2.7455,-2.7598,-2.7598,-2.7597,-2.7597,-2.7596,0,-2.7583,-2.7578,-2.7599,-2.7609,-2.7628,-2.7592,-2.7597,-2.7615,-2.7645,-2.7647,-2.7664,-2.7696,-2.7719,-2.7705,-2.7726,-2.775,-2.7734,-2.7756,-2.7755,-2.7756,-2.7631,-2.7618,-2.7768,-2.7768,-2.7768,-2.7768,-2.7768,-2.7768,-2.7663,-2.7711,-2.7697,-2.7746,-2.7741,-2.7772,-2.7779,-2.7786,-2.7788,-2.7825,-2.7844,-2.7835,-2.7832,-2.7851,-2.7872,-2.7867,-2.7878,-2.7906,-2.7897,-2.7781,-2.7764,-2.7748,-2.7736,-2.7908,-2.7909,-2.8019,-2.802,-2.8021]},{"header":{"parameterUnit":"m.s-1","parameterCategory":1,"la1":30.2991,"la2":30.254,"lo1":-89.0895,"lo2":-89.0444,"dy":0.0017,"dx":0.0017,"nx":28,"ny":28,"refTime":"2023-08-28T09:00:00:Z","depth":0,"parameterNumber":3,"parameterNumberName":"V-component_of_WINDS"},"data":[0,0,0,0,0,0,0,0,0,0,0,0,0,0,0,0,0,0,0,0,0,0,0,0,0,0,0,0,0,0,0,0,0,0,0,0,0,0,0,0,0,0,0,0,0,0,0,0,0,0,0,0,0,0,0,0,0,0,-1.9652,-1.9651,0,-1.9643,-1.9643,-1.9643,-1.9603,-1.9602,-1.9601,-1.96,-1.9592,-1.9592,-1.9593,0,0,0,0,0,0,0,0,0,0,0,0,0,-1.9635,-1.9635,-1.9652,-1.9651,-1.9651,-1.9643,-1.9643,-1.9643,-1.9603,-1.9602,-1.9601,-1.96,-1.9591,-1.9592,-1.9593,0,0,0,0,0,0,0,0,0,0,0,0,0,-1.9636,-1.9636,-1.9652,-1.9631,-1.9629,-1.9643,-1.9643,-1.9642,-1.9603,-1.9602,-1.9601,-1.9599,-1.9591,-1.9592,-1.9593,-1.9627,0,0,-1.9596,-1.9596,0,0,0,0,0,0,0,0,-1.9636,-1.9636,-1.9634,-1.9632,-1.963,-1.9623,-1.9634,-1.9637,-1.9604,-1.9613,-1.96,-1.9599,-1.9603,-1.9603,-1.9604,-1.9626,-1.9626,-1.9596,-1.9597,-1.9597,-1.9597,0,0,0,0,0,0,0,-1.9636,-1.9637,-1.9648,-1.9634,-1.9632,-1.9622,-1.9621,-1.9634,-1.9616,-1.9612,-1.9609,-1.9609,-1.9602,-1.9604,-1.9604,-1.9626,-1.9596,-1.9597,-1.9597,-1.9598,-1.9675,-1.9677,0,0,0,0,0,0,-1.9639,-1.9637,-1.9648,-1.9648,-1.963,-1.9623,-1.9622,-1.9626,-1.9616,-1.9613,-1.961,-1.9607,-1.9603,-1.9603,-1.9603,-1.9643,-1.9597,-1.9598,-1.9598,-1.9674,-1.9676,-1.9677,0,0,0,0,0,0,-1.9638,-1.964,-1.9649,-1.9642,-1.9642,-1.9625,-1.9631,-1.9627,-1.9629,-1.9614,-1.9611,-1.9615,-1.9602,-1.9602,-1.9621,-1.9642,-1.9598,-1.9599,-1.9672,-1.9674,-1.9677,-1.9721,0,0,0,0,0,0,-1.9638,-1.964,-1.9653,-1.9642,-1.9642,-1.9667,-1.9632,-1.9628,-1.963,-1.9626,-1.9618,-1.9615,-1.96,-1.962,-1.9622,-1.9642,-1.96,-1.967,-1.9673,-1.9676,-1.9718,-1.9724,-1.973,0,0,0,0,0,-1.9638,-1.9665,-1.9653,-1.9655,-1.9658,-1.9668,-1.9668,-1.9651,-1.9632,-1.9645,-1.9635,-1.9616,-1.9639,-1.9622,-1.9624,-1.9645,-1.9669,-1.9672,-1.9676,-1.9715,-1.9723,-1.973,0,0,0,0,0,0,-1.9679,-1.9664,-1.965,-1.9675,-1.9673,-1.9661,-1.9676,-1.966,-1.9663,-1.9659,-1.9637,-1.9636,-1.9658,-1.9653,-1.9635,-1.9677,-1.9651,-1.9655,-1.968,-1.9688,-1.9694,-1.9695,-1.9601,0,0,0,0,0,-1.9691,-1.97,-1.9686,-1.971,-1.971,-1.9693,-1.9697,-1.9684,-1.9681,-1.968,-1.9672,-1.967,-1.9677,-1.9682,-1.9687,-1.9717,-1.9715,-1.9732,-1.9738,-1.9743,-1.9747,-1.9763,-1.9771,-1.9688,-1.9688,-1.9688,0,0,-1.9715,-1.9708,-1.9716,-1.9718,-1.9715,-1.9726,-1.9693,-1.9705,-1.9713,-1.9682,-1.9699,-1.9694,-1.969,-1.9715,-1.9725,-1.9711,-1.977,-1.9748,-1.9752,-1.9753,-1.9767,-1.9775,-1.9782,-1.9691,-1.969,-1.969,0,0,-1.9766,-1.9762,-1.9781,-1.9779,-1.9774,-1.9763,-1.9768,-1.9759,-1.9754,-1.9771,-1.9748,-1.9757,-1.9769,-1.9768,-1.9769,-1.982,-1.9802,-1.9822,-1.9855,-1.9871,-1.9878,-1.9883,-1.9902,-1.9909,-1.9826,-1.9826,-1.9826,0,-1.9798,-1.9813,-1.9793,-1.9807,-1.9809,-1.9781,-1.9801,-1.98,-1.9797,-1.98,-1.9784,-1.9799,-1.9795,-1.9819,-1.9832,-1.9833,-1.9838,-1.9823,-1.9878,-1.9884,-1.9889,-1.9907,-1.9914,-1.9828,-1.9828,-1.9828,-1.9828,0,-1.9852,-1.9863,-1.9879,-1.9878,-1.9881,-1.9898,-1.9882,-1.9888,-1.9874,-1.9865,-1.9884,-1.9877,-1.9882,-1.9886,-1.9873,-1.9909,-1.9901,-1.9882,-1.9855,-1.99,-1.9916,-1.9922,-1.9832,-1.9831,-1.983,-1.983,0,0,-1.9928,-1.9916,-1.9923,-1.9922,-1.9916,-1.9924,-1.994,-1.9944,-1.995,-1.9949,-1.9962,-1.9973,-1.9957,-1.9958,-1.9944,-1.9958,-1.9999,-1.9937,-1.9937,-1.995,-2.004,-2.0054,-2.0062,-1.9987,-1.9988,-1.9989,-2.004,0,-1.9977,-2.0004,-1.9987,-2.0016,-2.0026,-2.0,-2.0014,-2.0012,-2.0004,-2.0011,-2.0002,-2.0011,-1.9987,-1.9988,-2.0001,-1.9992,-2.0017,-1.9988,-2.0,-2.0001,-2.0002,-2.0071,-2.0086,-2.0134,-2.0046,-2.0047,-2.0048,0,-2.0038,-2.0041,-2.0071,-2.0063,-2.0067,-2.008,-2.0082,-2.009,-2.0087,-2.008,-2.0081,-2.0064,-2.008,-2.0053,-2.0074,-2.0054,-2.0058,-2.0055,-2.0056,-2.0057,-2.0028,-2.0074,-2.0149,-2.0156,-2.0058,-2.0057,-2.0056,0,-2.0092,-2.0103,-2.0122,-2.0123,-2.0114,-2.0123,-2.012,-2.0116,-2.0119,-2.0122,-2.0124,-2.0128,-2.0131,-2.0134,-2.0119,-2.0101,-2.0143,-2.0114,-2.0138,-2.0139,-2.0149,-2.0148,-2.0226,-2.015,-2.015,-2.015,-2.015,0,-2.0149,-2.0169,-2.0147,-2.0159,-2.0181,-2.0161,-2.0183,-2.0177,-2.0173,-2.0184,-2.0161,-2.0172,-2.0151,-2.016,-2.0148,-2.0168,-2.0169,-2.0164,-2.0161,-2.0167,-2.0167,-2.0169,-2.0166,-2.0152,-2.0151,-2.0151,-2.0151,0,-2.0213,-2.0199,-2.0219,-2.0209,-2.0206,-2.0223,-2.0214,-2.0226,-2.0216,-2.023,-2.0232,-2.0218,-2.0227,-2.0212,-2.0219,-2.0211,-2.0239,-2.023,-2.024,-2.0238,-2.0263,-2.0261,-2.0345,-2.0355,-2.0272,-2.0273,-2.0274,0,-2.025,-2.0265,-2.0257,-2.0262,-2.0261,-2.027,-2.0274,-2.0255,-2.026,-2.0258,-2.027,-2.0277,-2.0282,-2.0298,-2.0288,-2.0293,-2.0285,-2.0314,-2.0286,-2.0291,-2.0286,-2.0286,-2.0288,-2.032,-2.0321,-2.0322,-2.0322,0,-2.0319,-2.0311,-2.0318,-2.0322,-2.0327,-2.033,-2.033,-2.0336,-2.0317,-2.0324,-2.0333,-2.0337,-2.0344,-2.0352,-2.0355,-2.0352,-2.0334,-2.0331,-2.0337,-2.0344,-2.0349,-2.0347,-2.0257,-2.033,-2.0329,-2.0328,-2.0328,-2.0328,-2.0371,-2.0383,-2.038,-2.0388,-2.0387,-2.0388,-2.0398,-2.039,-2.0397,-2.0402,-2.0391,-2.0403,-2.04,-2.0402,-2.0401,-2.041,-2.0398,-2.0406,-2.0408,-2.0411,-2.0415,-2.0347,-2.0411,-2.0411,-2.041,-2.041,-2.041,0,-2.0439,-2.0436,-2.0443,-2.0445,-2.0452,-2.0435,-2.0435,-2.0441,-2.0452,-2.0451,-2.0456,-2.0467,-2.0475,-2.0465,-2.0471,-2.0481,-2.0473,-2.0483,-2.0482,-2.0482,-2.0426,-2.0421,-2.0489,-2.0489,-2.0489,-2.0489,-2.0489,-2.0489,-2.0476,-2.0496,-2.0488,-2.0507,-2.0503,-2.0515,-2.0517,-2.0518,-2.0517,-2.053,-2.0536,-2.053,-2.0526,-2.0531,-2.0538,-2.0535,-2.0538,-2.0552,-2.0546,-2.0494,-2.0486,-2.0479,-2.0474,-2.0552,-2.0552,-2.0602,-2.0602,-2.0602]}]]